Waarnemingen

Advertentie
Mijn weer
Reims-Prunay, Frankrijk (7072): temperatuur & dauwpunt: 14.08.2017 00:00:00 - 20.08.2017 00:00:00 (CEST)Reims-Prunay, Frankrijk (7072): temperatuur 5cm: 14.08.2017 00:00:00 - 20.08.2017 00:00:00 (CEST)Reims-Prunay, Frankrijk (7072): temperatuur -20cm & temperatuur -100cm: 14.08.2017 00:00:00 - 20.08.2017 00:00:00 (CEST)Reims-Prunay, Frankrijk (7072): windsnelheid & windstoten: 14.08.2017 00:00:00 - 20.08.2017 00:00:00 (CEST)Reims-Prunay, Frankrijk (7072): windrichting: 14.08.2017 00:00:00 - 20.08.2017 00:00:00 (CEST)Reims-Prunay, Frankrijk (7072): luchtdruk: 14.08.2017 00:00:00 - 20.08.2017 00:00:00 (CEST)Reims-Prunay, Frankrijk (7072): zicht: 14.08.2017 00:00:00 - 20.08.2017 00:00:00 (CEST)Reims-Prunay, Frankrijk (7072): Zonneschijnduur: 14.08.2017 00:00:00 - 20.08.2017 00:00:00 (CEST)Reims-Prunay, Frankrijk (7072): neerslag: 14.08.2017 00:00:00 - 20.08.2017 00:00:00 (CEST)
Datum & Tijd tt [°C] td [°C] tt 5cm [°C] tt -20cm [°C] tt -100cm [°C] ff [km/u] ff [kn] fx [km/u] fx [kn] dd ppp [hPa] vv [km] sd [min] rr [mm]
20.08.2017 00:00:00 11,3 10,4 8,8 18,9 17,6 2 1 6 3 N 1023,3 20 0 0,0
19.08.2017 23:00:00 11,7 10,9 10,1 19,0 17,6 4 2 9 5 N 1022,9 20 0 0,0
19.08.2017 22:00:00 12,6 11,3 9,1 19,1 17,6 5 3 6 3 N 1022,7 20 0 0,0
19.08.2017 21:00:00 15,0 11,2 10,4 19,1 17,6 0 0 10 6 N 1022,0 7 16 0,0
19.08.2017 20:00:00 18,2 11,5 17,2 19,1 17,6 8 4 15 8 W 1021,6 20 18 0,0
19.08.2017 19:00:00 17,6 10,2 17,5 19,0 17,6 11 6 32 17 W 1021,3 20 12 0,0
19.08.2017 18:00:00 19,0 11,8 18,1 18,9 17,6 8 4 19 10 W 1021,2 20 3 0,0
19.08.2017 17:00:00 17,1 12,8 16,5 18,8 17,6 17 9 44 24 NNW 1021,2 20 12 0,0
19.08.2017 16:00:00 20,2 11,7 21,2 18,6 17,6 19 10 41 22 W 1020,8 20 27 0,0
19.08.2017 15:00:00 19,9 11,6 20,8 18,4 17,6 20 11 34 19 WZW 1020,6 20 19 0,0
19.08.2017 14:00:00 20,2 11,4 21,8 18,1 17,6 21 12 41 22 W 1020,4 20 48 0,0
19.08.2017 13:00:00 19,6 11,6 21,6 18,0 17,6 18 10 33 18 W 1020,4 20 40 0,0
19.08.2017 12:00:00 18,7 12,2 19,4 17,9 17,6 18 10 29 16 W 1020,5 20 36 0,0
19.08.2017 11:00:00 17,4 11,7 19,8 18,0 17,6 17 9 31 17 W 1020,5 20 58 0,0
19.08.2017 10:00:00 15,9 11,5 17,7 18,0 17,6 20 11 32 17 W 1020,4 20 60 0,0
19.08.2017 09:00:00 14,6 10,8 11,9 18,1 17,6 18 10 30 16 W 1020,1 20 55 0,0
19.08.2017 08:00:00 13,2 10,6 9,1 18,3 17,6 11 6 19 10 W 1019,8 20 55 0,0
19.08.2017 07:00:00 11,0 9,3 8,4 18,5 17,6 5 3 16 9 WNW 1019,5 20 0 0,0
19.08.2017 06:00:00 11,5 9,4 9,0 18,7 17,6 10 6 18 10 W 1019,2 20 0 0,0
19.08.2017 05:00:00 12,3 9,5 8,0 18,9 17,6 9 5 19 10 W 1019,0 20 0 0,0
19.08.2017 04:00:00 11,4 10,0 4,3 19,1 17,6 8 4 10 5 W 1019,2 20 0 0,0
19.08.2017 03:00:00 11,9 11,0 5,8 19,2 17,6 4 2 11 6 W 1018,9 20 0 0,0
19.08.2017 02:00:00 10,1 9,6 6,7 19,4 17,6 4 2 8 4 Z 1018,7 0,3 0 0,2
19.08.2017 01:00:00 11,8 11,2 8,0 19,5 17,6 0 0 8 5 N 1018,3 0,5 0 0,0
19.08.2017 00:00:00 13,1 12,5 9,0 19,6 17,6 3 2 6 3 NNW 1017,7 7 0 0,0
18.08.2017 23:00:00 15,1 14,1 12,6 19,8 17,6 4 2 11 6 WZW 1017,1 20 0 0,0
18.08.2017 22:00:00 14,8 14,0 11,1 19,8 17,5 7 4 9 5 N 1016,5 17 0 0,0
18.08.2017 21:00:00 17,2 15,2 15,3 19,8 17,6 4 2 36 19 WNW 1015,8 20 14 1,8
18.08.2017 20:00:00 17,9 14,4 15,8 19,8 17,6 13 7 33 18 W 1015,4 10 0 1,0
18.08.2017 19:00:00 19,6 16,4 20,1 19,8 17,6 14 8 31 17 ZW 1014,4 20 36 0,0
18.08.2017 18:00:00 19,9 16,9 18,7 19,8 17,6 15 8 24 13 ZZW 1014,1 20 10 0,0
18.08.2017 17:00:00 18,6 16,0 18,4 19,7 17,6 15 8 26 14 ZW 1014,7 20 0 0,0
18.08.2017 16:00:00 18,8 16,0 18,0 19,7 17,6 11 6 22 12 ZW 1014,8 20 0 0,0
18.08.2017 15:00:00 19,0 16,2 18,7 19,6 17,6 11 6 22 12 ZW 1014,7 20 0 0,0
18.08.2017 14:00:00 18,5 16,5 17,3 19,6 17,6 7 4 12 6 Z 1014,7 20 0 0,2
18.08.2017 13:00:00 18,0 15,4 17,7 19,6 17,6 4 2 14 8 ZW 1014,6 20 0 0,4
18.08.2017 12:00:00 17,4 15,7 16,6 19,6 17,6 8 4 34 18 W 1015,1 20 0 0,8
18.08.2017 11:00:00 17,1 15,4 16,8 19,5 17,6 19 10 36 19 W 1015,4 8 0 2,2
18.08.2017 10:00:00 19,9 18,4 19,4 19,5 17,6 9 5 18 10 WZW 1014,6 20 0 0,2
18.08.2017 09:00:00 19,6 18,1 18,6 19,6 17,6 8 4 13 7 ZZW 1014,5 20 0 0,4
18.08.2017 08:00:00 18,9 17,9 18,1 19,6 17,6 7 4 11 6 ZZW 1014,8 20 0 0,0
18.08.2017 07:00:00 18,9 17,6 18,1 19,6 17,5 8 5 15 8 ZW 1014,7 20 0 0,2
18.08.2017 06:00:00 19,3 17,8 18,3 19,6 17,5 8 5 16 9 ZW 1014,6 20 0 0,0
18.08.2017 05:00:00 19,4 18,1 18,3 19,7 17,5 11 6 29 15 ZW 1014,7 20 0 0,0
18.08.2017 04:00:00 19,3 18,0 17,9 19,8 17,6 15 8 26 14 ZW 1014,9 20 0 0,0
18.08.2017 03:00:00 19,2 18,0 17,7 19,8 17,5 8 4 21 11 ZW 1015,0 20 0 0,0
18.08.2017 02:00:00 19,0 18,0 17,9 19,8 17,6 4 2 16 8 ZZW 1015,4 20 0 0,6
18.08.2017 01:00:00 19,2 18,5 18,7 19,9 17,5 10 5 21 11 WZW 1016,2 6 0 6,0
18.08.2017 00:00:00 19,3 18,5 18,9 19,9 17,6 8 4 16 9 Z 1016,4 20 0 5,7
17.08.2017 23:00:00 19,8 18,8 19,1 19,9 17,5 4 2 24 13 NNW 1016,5 7 0 1,6
17.08.2017 22:00:00 20,0 18,7 18,4 19,9 17,6 7 4 13 7 ZZW 1016,7 20 0 0,0
17.08.2017 21:00:00 20,1 18,8 19,3 19,9 17,6 11 6 46 25 ZW 1016,8 20 0 0,8
17.08.2017 20:00:00 22,9 17,6 22,5 19,9 17,6 16 9 29 15 ZZW 1016,3 20 23 0,0
17.08.2017 19:00:00 24,1 18,1 24,4 19,8 17,5 16 9 35 19 ZW 1015,9 20 35 0,0
17.08.2017 18:00:00 23,2 17,9 23,0 19,7 17,5 15 8 26 14 WZW 1016,7 20 0 0,0
17.08.2017 17:00:00 22,6 17,5 22,8 19,6 17,5 18 10 32 17 WZW 1016,7 20 0 0,0
17.08.2017 16:00:00 23,5 18,2 24,6 19,5 17,5 15 8 30 16 WZW 1017,2 20 0 0,0
17.08.2017 15:00:00 22,5 17,6 21,3 19,4 17,6 13 7 27 15 WZW 1017,3 20 3 0,0
17.08.2017 14:00:00 21,0 17,0 20,6 19,3 17,5 16 9 24 13 WZW 1017,7 20 0 0,0
17.08.2017 13:00:00 19,9 16,5 16,8 19,2 17,5 7 4 42 23 Z 1017,6 20 7 0,2
17.08.2017 12:00:00 21,4 13,3 21,9 19,1 17,5 19 10 37 20 WZW 1017,9 19 21 0,0
17.08.2017 11:00:00 22,1 15,4 21,4 19,1 17,5 13 7 28 15 ZZW 1017,4 20 41 0,0
17.08.2017 10:00:00 19,7 14,9 20,2 19,1 17,5 14 7 21 11 ZZW 1017,6 20 12 0,0
17.08.2017 09:00:00 18,6 15,5 17,4 19,2 17,5 9 5 23 12 ZZW 1017,5 20 7 0,0
17.08.2017 08:00:00 16,4 15,8 14,8 19,3 17,6 4 2 12 7 ZZO 1017,6 14 0 0,0
17.08.2017 07:00:00 15,0 14,5 14,0 19,4 17,5 10 6 13 7 O 1017,3 6 0 0,0
17.08.2017 06:00:00 14,7 13,9 14,1 19,5 17,5 11 6 13 7 O 1017,3 9 0 0,0
17.08.2017 05:00:00 14,7 13,9 12,3 19,7 17,5 10 6 15 8 O 1017,8 12 0 0,2
17.08.2017 04:00:00 13,7 12,9 12,3 19,9 17,5 3 2 8 4 NO 1018,5 11 0 0,0
17.08.2017 03:00:00 14,7 13,6 13,5 20,0 17,5 7 4 13 7 O 1018,3 17 0 0,0
17.08.2017 02:00:00 15,0 13,9 13,9 20,1 17,5 10 5 12 7 O 1018,8 20 0 0,0
17.08.2017 01:00:00 15,1 13,6 12,8 20,3 17,5 8 4 11 6 O 1019,0 20 0 0,0
17.08.2017 00:00:00 15,6 13,8 11,7 20,5 17,5 5 3 7 4 OZO 1019,3 20 0 0,0
16.08.2017 23:00:00 16,2 13,9 12,1 20,6 17,5 4 2 9 5 OZO 1019,7 20 0 0,0
16.08.2017 22:00:00 18,3 14,6 14,8 20,7 17,6 5 3 13 7 ZZO 1020,1 20 0 0,0
16.08.2017 21:00:00 20,2 15,0 17,8 20,7 17,5 10 6 12 7 ONO 1019,4 20 26 0,0
16.08.2017 20:00:00 23,4 15,2 23,4 20,6 17,6 5 3 11 6 NO 1019,5 20 56 0,0
16.08.2017 19:00:00 24,2 14,6 25,1 20,4 17,6 9 5 16 9 NNO 1019,4 20 42 0,0
16.08.2017 18:00:00 25,9 15,3 28,4 20,1 17,5 3 1 12 7 ONO 1019,6 20 42 0,0
16.08.2017 17:00:00 25,2 15,8 26,5 19,8 17,5 4 2 13 7 ZO 1019,8 20 24 0,0
16.08.2017 16:00:00 24,7 15,1 28,1 19,6 17,5 3 2 15 8 ONO 1020,1 20 45 0,0
16.08.2017 15:00:00 24,9 16,9 26,7 19,2 17,5 5 3 11 6 NW 1020,6 20 39 0,0
16.08.2017 14:00:00 23,2 17,0 26,6 19,0 17,5 3 2 9 5 WNW 1020,9 19 23 0,0
16.08.2017 13:00:00 21,4 16,8 24,3 18,8 17,5 4 2 9 5 W 1021,3 20 4 0,0
16.08.2017 12:00:00 21,0 17,2 24,8 18,6 17,5 4 2 12 7 ZZW 1021,4 20 39 0,0
16.08.2017 11:00:00 20,2 17,4 20,4 18,5 17,5 2 1 9 5 OZO 1021,3 18 45 0,0
16.08.2017 10:00:00 17,7 16,0 17,3 18,5 17,6 4 2 11 6 W 1021,6 18 7 0,0
16.08.2017 09:00:00 16,1 15,6 15,5 18,6 17,5 7 4 12 6 NW 1021,7 18 12 0,0
16.08.2017 08:00:00 15,0 14,8 13,4 18,7 17,5 0 0 4 2 N 1021,5 0,3 26 0,0
16.08.2017 07:00:00 14,1 13,8 12,0 18,8 17,6 0 0 8 4 N 1021,2 0,2 0 0,0
16.08.2017 06:00:00 15,1 14,9 12,9 18,8 17,5 4 2 7 4 N 1020,7 2,3 0 0,0
16.08.2017 05:00:00 14,8 14,5 13,3 18,9 17,5 0 0 5 3 N 1020,9 0,6 0 0,0
16.08.2017 04:00:00 15,2 14,9 14,7 19,0 17,5 3 2 7 4 Z 1020,6 5 0 0,0
16.08.2017 03:00:00 15,0 14,7 12,7 19,1 17,5 4 2 7 4 N 1020,5 4,8 0 0,0
16.08.2017 02:00:00 15,3 15,0 13,0 19,1 17,5 3 2 6 4 N 1020,3 7 0 0,0
16.08.2017 01:00:00 15,3 14,8 13,1 19,2 17,5 4 2 6 3 NW 1020,2 13 0 0,0
16.08.2017 00:00:00 15,8 15,2 14,1 19,3 17,5 5 3 7 4 NNW 1020,1 19 0 0,0
15.08.2017 23:00:00 16,5 15,5 14,9 19,4 17,5 4 2 7 4 Z 1020,0 20 0 0,0
15.08.2017 22:00:00 17,3 16,0 16,1 19,5 17,5 4 2 8 4 N 1019,4 20 0 0,2
15.08.2017 21:00:00 17,4 15,7 16,3 19,5 17,5 7 4 26 14 NNW 1018,7 20 0 1,0
15.08.2017 20:00:00 17,3 15,6 16,3 19,5 17,5 14 8 50 27 ZW 1017,9 18 0 3,6
15.08.2017 19:00:00 19,6 18,3 18,7 19,3 17,5 28 15 51 27 ZW 1017,8 6 0 4,3
15.08.2017 18:00:00 23,7 17,4 23,3 19,2 17,5 16 9 27 15 ZZW 1016,5 20 17 0,0
15.08.2017 17:00:00 25,5 18,2 26,0 19,1 17,5 16 9 37 20 ZZW 1016,0 20 16 0,0
15.08.2017 16:00:00 24,2 17,2 25,3 19,1 17,6 22 12 43 23 ZW 1016,0 20 0 0,0
15.08.2017 15:00:00 24,4 17,4 24,8 19,0 17,5 24 13 38 21 ZW 1015,7 20 0 0,0
15.08.2017 14:00:00 24,4 17,9 21,7 18,9 17,6 19 10 34 18 ZZW 1014,9 20 1 0,0
15.08.2017 13:00:00 24,7 17,4 22,6 18,8 17,5 14 7 32 17 Z 1014,3 20 0 0,0
15.08.2017 12:00:00 23,0 16,8 22,3 18,7 17,5 11 6 25 13 ZZO 1014,4 20 0 0,0
15.08.2017 11:00:00 20,9 16,9 20,9 18,7 17,6 6 3 14 8 ZO 1014,2 20 5 0,0
15.08.2017 10:00:00 20,7 15,9 19,3 18,7 17,5 6 3 26 14 O 1014,1 20 2 0,0
15.08.2017 09:00:00 19,9 15,5 16,9 18,8 17,5 14 8 35 19 NNW 1014,3 20 0 0,0
15.08.2017 08:00:00 17,3 14,4 14,9 18,9 17,5 16 9 21 12 ZO 1013,1 20 0 0,0
15.08.2017 07:00:00 15,1 13,1 13,7 19,0 17,5 11 6 19 10 O 1013,5 20 0 0,0
15.08.2017 06:00:00 14,2 12,4 12,5 19,2 17,6 9 5 13 7 OZO 1014,0 20 0 0,0
15.08.2017 05:00:00 13,9 11,8 12,3 19,3 17,5 10 5 13 7 O 1014,5 20 0 0,0
15.08.2017 04:00:00 14,8 11,9 10,0 19,5 17,6 5 3 9 5 O 1015,3 20 0 0,0
15.08.2017 03:00:00 14,3 11,8 11,3 19,6 17,5 5 3 7 4 O 1015,1 20 0 0,0
15.08.2017 02:00:00 15,3 12,6 12,8 19,8 17,6 4 2 9 5 ONO 1015,4 14 0 0,0
15.08.2017 01:00:00 15,3 12,6 11,2 19,9 17,6 7 4 9 5 O 1015,7 20 0 0,0
15.08.2017 00:00:00 14,9 12,0 10,9 20,1 17,6 6 3 9 5 O 1016,0 20 0 0,0
14.08.2017 23:00:00 16,2 12,6 10,9 20,2 17,6 6 3 8 5 O 1016,3 20 0 0,0
14.08.2017 22:00:00 16,3 11,9 13,4 20,3 17,6 0 0 9 5 N 1016,4 20 0 0,0
14.08.2017 21:00:00 19,5 12,3 15,4 20,2 17,6 6 3 8 5 N 1015,8 11 5 0,0
14.08.2017 20:00:00 25,5 13,7 25,1 20,2 17,6 5 3 21 11 Z 1015,6 20 60 0,0
14.08.2017 19:00:00 26,4 11,7 26,8 20,0 17,6 9 5 18 10 ZZW 1015,8 20 55 0,0
14.08.2017 18:00:00 26,5 12,2 26,4 19,8 17,6 7 4 18 10 ZZW 1016,1 20 35 0,0
14.08.2017 17:00:00 26,4 12,1 28,2 19,5 17,5 6 3 17 9 Z 1016,4 20 38 0,0
14.08.2017 16:00:00 25,6 12,4 28,6 19,2 17,6 7 4 33 18 ZZW 1016,6 20 27 0,0
14.08.2017 15:00:00 26,3 13,1 26,8 18,8 17,6 9 5 29 15 ZZW 1017,1 18 44 0,0
14.08.2017 14:00:00 25,3 12,8 31,5 18,5 17,6 5 3 21 11 ZW 1017,6 20 60 0,0
14.08.2017 13:00:00 24,5 12,1 27,8 18,2 17,6 11 6 22 12 WZW 1018,2 20 56 0,0
14.08.2017 12:00:00 23,6 14,3 28,4 18,0 17,6 5 3 16 9 OZO 1018,7 14 60 0,0
14.08.2017 11:00:00 22,1 13,2 24,1 18,0 17,6 0 0 11 6 N 1019,1 20 60 0,0
14.08.2017 10:00:00 18,5 13,8 18,5 18,0 17,6 6 3 11 6 OZO 1019,4 19 46 0,0
14.08.2017 09:00:00 15,7 12,3 15,9 18,1 17,6 4 2 6 4 OZO 1019,7 20 50 0,0
14.08.2017 08:00:00 12,6 10,8 7,8 18,2 17,6 0 0 5 3 N 1019,7 20 60 0,0
14.08.2017 07:00:00 9,5 8,7 7,3 18,4 17,6 2 1 4 2 OZO 1019,7 20 1 0,0
14.08.2017 06:00:00 9,7 8,9 7,4 18,6 17,6 3 2 6 3 NNO 1019,7 20 0 0,0
14.08.2017 05:00:00 8,9 8,3 5,4 18,8 17,6 0 0 3 2 N 1020,0 20 0 0,0
14.08.2017 04:00:00 9,2 8,0 6,6 18,9 17,6 3 1 5 3 O 1020,2 20 0 0,0
14.08.2017 03:00:00 11,3 10,0 7,0 19,1 17,6 3 1 7 4 NNW 1020,4 20 0 0,0
14.08.2017 02:00:00 10,8 9,2 6,4 19,3 17,6 0 0 5 3 N 1020,7 20 0 0,0
14.08.2017 01:00:00 11,9 9,6 8,7 19,4 17,6 0 0 6 4 N 1020,9 20 0 0,0
14.08.2017 00:00:00 13,0 10,9 9,2 19,6 17,6 2 1 7 4 ONO 1020,9 20 0 0,0

tt = temperatuur
td = dauwpunt
tt 5cm = temperatuur 5cm
tt -20cm = temperatuur -20cm
tt -100cm = temperatuur -100cm
ff = windsnelheid
fx = windstoten
dd = windrichting
ppp = luchtdruk
vv = zicht
sd = Zonneschijnduur
rr = neerslag

Weerstations in de omgeving